AQI (45)

Current Conditions for Foresthill, CA. Clear skies, Dry   
Visibility: 10 miles
Space WX Alerts: CONTINUED ALERT:  Electron 2MeV Integral Flux exceeded 1000pfu ( Latest Alert ) - Issue Time: 2018 Oct 20 1716 UTC

  Summary / Temperature 

Current Temperature
55.9°F
13.3°C
(24/hr Ago)
57.1°F
(Apparent temp)
51.4°F
Cool
Wind Chill Graphs
55.9°F 

55.9°F/ 13.3°C
 --- Virtual Temp: 57.3°F ---

 Temp Rate:

 24/hr Difference:

 Avg Running Temp:

 Todays High:

 Todays Low:

 Y-days High:

 Y-days Low:

 Todays WChill:

 Y-days WChill:

 Evapotranspiration:

-0.5°F/hr 

-1.2°F

56.4°F

69.7°F 12:16pm

54.4°F 6:44am

71.6°F 1:48pm

54.6°F 6:38am

49.8°F 7:27am

51.6°F 7:29am

0.111 in

115' Above Ground

 Temperature:

 6'AGL VRS 115'AGL:

 Avg Running Temp:

 Humidity:

 Todays High:

 Todays Low:

 Y-days High:

 Y-days Low:

58.0°F 

+2.1°F

59.2°F

37% 

71.0°F 11:25am

56.0°F 5:40am

73.0°F 1:14pm

58.0°F 2:42am

Temp & Humidity Graphs

  Wind 

Wind Speed

 Calm

Gusting to

 8.0 mph

Wind from E

98°  E

Calm

 Avg speed:

 Wind Run:

 Peak Gust:

  2.0 mph 

53.0 miles

  18.0 mph 4:54am

  Almanac  

Moon age: 14 days,7 hours,47 minutes,100%

Full moon
100%
Illuminated
14 days in cycle

 Moonrise:

 Moonset:

 Sunrise:

 Sunset:

 Solar Noon:

6:11pm

6:07am

7:22am

6:14pm

12:48pm

2min 27s less daylight tomorrow 

  Solar Radiation 

(Current Solar)
  No Sun Light
(Todays High)
 726 W/m2@12:07pm

Rain

 Rain Today:

 Rain Rate (/hr):

 Rain last hour:

 Rain Yesterday:

 This Month:

 Season Total:

16 Days Since Last Rain Day

0.00 in

0.000 in

0.00 in

0.00 in

0.92 in

0.92 in

Updated Time

Updated: 10/23/18  11:21pm

(Updated  sec ago)

Humidity & Barometer

 Humidity:

 Wetbulb:

 Dew Point:

 Barometer:

42% 

46.6°F 

33.1°F 

30.001 inHg 

 Baro Trend:  Steady 
Northern Calif
Preparedness
Fire 
Level 

    UV Index  

(Current UV)
0.0  None
(Todays High) @ 1:12pm
4.1   Medium

National Weather Service Forecast

Tonight

Tonight: Mostly Clear
Mostly Clear
Wednesday

Wednesday: Mostly Sunny
Mostly Sunny
Wednesday
Night
Wednesday Night: Mostly Clear
Mostly Clear
Thursday

Thursday: Sunny
Sunny
Thursday
Night
Thursday Night: Mostly Clear
Mostly Clear
Friday

Friday: Mostly Sunny
Mostly Sunny
Lo 51 °F ↑ Hi 69 °F ↓ Lo 53 °F ↑ Hi 75 °F Lo 56 °F Hi 77 °F

Foresthill Probe 2 Stats  
Foresthill Probe 2: is located on Thomas Street
at 3000 feet. The main Foresthill Weather site
is located on Melody ln at the 2860 foot elevation

Calm
53.7°F
12.1°C
Temp Rate:
-0.6°F
Calm
Gusting to
2.0 mph
(Humidity)
46%
Wind from SSE
150°  SSE
Updated: 23/10/18 - 23:17:10
 Todays High: 68.9°F 11:32
 Todays Low: 50.9°F 07:07
 Rain Today: 0.00 in
 Season Total: 0.63 in

Foresthill Wx: Monthly,Yearly, Highs and Lows 

Foresthill  
This Weather Data is coming from the main Foresthill
Weather site located on Melody ln at the 2860 foot
elevation
Not Foresthill Probe 2
Weather Data
Month
  High
Month
  Low
Year
High
Year
Low
Temp 76.9°F
10/2/18
48.1°F
10/5/18
93.9°F
8/10/18
21.9°F
2/23/18
Humidity 100%
10/5/18
9%
10/15/18
100%
1/8/18
9%
10/15/18
Heat Index 76.7°F
10/2/18
50.6°F
10/7/18
93.3°F
7/25/18
27.1°F
2/20/18
Wind Chill 76.9°F
10/2/18
44.2°F
10/5/18
93.9°F
8/10/18
9.2°F
2/23/18
Wind Gust 43 mph
10/14/18
0 mph
10/1/18
43 mph
3/1/18
0 mph
1/1/18
Barometer 30.19 in
10/19/18
29.75 in
10/9/18
30.55 in
1/27/18
29.60 in
6/16/18
ET 0.20 in
10/14/18
0.00 in
10/1/18
0.25 in
6/24/18
0.00 in
1/1/18
Dew Point 55.9°F
10/3/18
7.1°F
10/15/18
66.9°F
7/24/18
7.1°F
10/15/18
Pacific Satellite US Radar Satellite Imagery Sacramento,CA.  (click to enlarge)
NWS Weather Forecast - Summary
Updated: Tuesday, October 23, 2018 - 3:15pm PDT
Current Interstate Highway Conditions for I-80 & US-50

[I 80: IN THE SAN FRANCISCO BAY AREA - SOLANO CO]
no traffic restrictions are reported for this area.

[I 80: IN THE NORTHERN CALIFORNIA AREA & SIERRA NEVADA]
no traffic restrictions are reported for this area.

[US 50: IN THE SACRAMENTO VALLEY & THE LAKE TAHOE BASIN]
the westbound connector to northbound sr 51 /in sacramento/ (sacramento co)   Is closed from 11:00pm each night to 5:00am each morning sunday thru friday thru 10/26/18 - due to construction - a detour is available
NWS Weather Forecast: Tonight and Wednesday (Updated: Tue, 23-Oct-2018 6:25pm PDT)
Tonight

Tonight: Mostly Clear
Mostly Clear

Lo 51 °F ↑
NWS forecast: Mostly clear. Low around 51, with temperatures rising to around 53 overnight. East northeast wind around 6 mph.
Wednesday

Wednesday: Mostly Sunny
Mostly Sunny

Hi 69 °F ↓
NWS forecast: Mostly sunny. High near 69, with temperatures falling to around 67 in the afternoon. South wind 2 to 6 mph.
YR.NO 10 Day Weather forecast
Last update: 10/23/2018 @ 12:31
Next update: 10/24/2018 @ 01:00
Provided by: 22
      Temperature Precipitation Pressure Wind  
Today
10/23/2018
21:00 00:00 48°F   29.99 inHg Light breeze from east-northeast 4 mph
    (Click to enlarge)
meteogram

    Forecast for next 9 days

      Temperature Precip Pressure Wind  
Wednesday
10/24/2018
00:00 06:00 46°F   29.99 inHg Light breeze from east-northeast 4 mph
  06:00 12:00 43°F   30.00 inHg Light breeze from east-northeast 4 mph
  12:00 18:00 68°F   30.03 inHg Light breeze from southwest 4 mph
  18:00 00:00 59°F   30.03 inHg Light air from west-southwest 3 mph
      Temperature Precip Pressure Wind  
Thursday
10/25/2018
00:00 06:00 45°F   30.09 inHg Light breeze from east-northeast 5 mph
  06:00 12:00 43°F   30.07 inHg Light breeze from east-northeast 6 mph
  12:00 18:00 73°F   30.08 inHg Light breeze from west 5 mph
  18:00 00:00 63°F   30.05 inHg Light breeze from west-southwest 4 mph
      Temperature Precip Pressure Wind  
Friday
10/26/2018
00:00 06:00 48°F   30.08 inHg Light breeze from east-northeast 5 mph
  05:00 11:00 46°F   30.08 inHg Light breeze from east-northeast 4 mph
  11:00 17:00 72°F   30.12 inHg Light air from west 2 mph
  17:00 23:00 72°F   30.03 inHg Light air from west 2 mph
  23:00 05:00 52°F   30.05 inHg Light breeze from east-northeast 5 mph
      Temperature Precip Pressure Wind  
Saturday
10/27/2018
05:00 11:00 48°F   30.02 inHg Light breeze from east-northeast 5 mph
  11:00 17:00 75°F   30.03 inHg Light air from southwest 3 mph
  17:00 23:00 73°F   29.95 inHg Light air from west-southwest 2 mph
  23:00 05:00 52°F   29.98 inHg Light breeze from east-northeast 5 mph
      Temperature Precip Pressure Wind  
Sunday
10/28/2018
05:00 11:00 48°F   29.97 inHg Light breeze from east-northeast 5 mph
  11:00 17:00 75°F   29.99 inHg Light breeze from southwest 4 mph
  17:00 23:00 70°F   29.97 inHg Light breeze from southwest 4 mph
  23:00 05:00 57°F   30.05 inHg Light breeze from east-southeast 5 mph
      Temperature Precip Pressure Wind  
Monday
10/29/2018
05:00 11:00 50°F   30.06 inHg Light air from east 3 mph
  11:00 17:00 63°F   30.10 inHg Light breeze from west-southwest 5 mph
  17:00 23:00 61°F   30.06 inHg Light breeze from west-northwest 5 mph
  23:00 05:00 43°F   30.05 inHg Light breeze from east-northeast 6 mph
      Temperature Precip Pressure Wind  
Tuesday
10/30/2018
05:00 11:00 45°F   30.00 inHg Gentle breeze from east-northeast 8 mph
  11:00 17:00 66°F   29.98 inHg Gentle breeze from east-northeast 9 mph
  17:00 23:00 66°F   29.93 inHg Light breeze from west-northwest 4 mph
  23:00 05:00 52°F   29.95 inHg Gentle breeze from east-northeast 10 mph
      Temperature Precip Pressure Wind  
Wednesday
10/31/2018
05:00 11:00 46°F   29.95 inHg Light breeze from east-northeast 7 mph
  11:00 17:00 66°F   29.96 inHg Light air from east-southeast 2 mph
  17:00 23:00 66°F   29.91 inHg Light breeze from north-northwest 4 mph
  23:00 05:00 54°F   29.96 inHg Gentle breeze from east-northeast 9 mph
      Temperature Precip Pressure Wind  
Thursday
11/01/2018
05:00 11:00 46°F   29.99 inHg Light breeze from east-northeast 7 mph
  11:00 17:00 66°F   30.03 inHg Light air from south 3 mph
  17:00 23:00 64°F   29.98 inHg Light breeze from west 4 mph
  23:00 05:00 46°F   30.01 inHg Light breeze from east-northeast 6 mph
How Close Are We To this Month's Temperature Record ?
Updated Tuesday, Oct 23, 2018- 11:15:00 PM

Current Temperature: 55.9°F

October's High: Temperature Record 90.8°F - Set on Mon, Oct 1, 2012 - 2:51:00 PM
We are currently 34.9°F Less than this Month's record High

October's Low: Temperature Record 38.8°F - Set on Tue, Oct 23, 2012 - 11:59:00 PM
We are currently 17.1°F More than this Month's record Low

Weather History For Wednesday, October 24, 2018


On this Day - In Weather History ...
Data courtesy of weatherforyou.com
powered by Cumulus v1.9.3 (1059)
Ambient Weather VWS v14.00
Top Contact Website Map Copyright © 2007 - 2018 Foresthillweather.com Never base important decisions on this or any weather information obtained from the Internet